IRIDIUM 61 [B] (25263 NORAD) Tracking and Keplerian Element Data

This shows tracking and keplerian element data for the satellite.

Feedback or suggestion? Click here.




ElementValue
Catalog25263
NameIRIDIUM 61 [B]
Epoch Orbit8500
Epoch Day348.80221951
Epoch Year2018
RAAN90.8909
Inclination86.4244
Eccentricity0.0003046
Argument of Perigee77.2526
Mean Anonmoly282.9012
Mean Motion14.38606354
Decay Rate1.53E-06
L11 25263U 98018B 18348.80221951 .00000153 00000-0 43524-4 0 9997
L22 25263 86.4244 90.8909 0003046 77.2526 282.9012 14.38606354 85002

Live tracking and technical data element details for IRIDIUM 61 [B] (NORAD 25263). IRIDIUM 61 [B] can be tracked NOW for your location showing map with azimuth and elevation plus other details from your city location.

Track the satellite on the map from your city or location and see movement details for azimuth, elevation, latitude, longitude, range, height, and movement on the map or in text.







IsCatalogInMostPopularTable: catalog: 25263, numindb: 53
Update: records affected: 1



GetName: 25263 IRIDIUM 61 [B]

Hit Count: updated at: Sat, 15 Dec 2018 18:26:08 GMT